User: anonymous   Login
Location: Ward Pound Ridge Reservation
(41.2500°N, 73.6000°W)
Time: 16:57:04
(UTC-05:00)
Language:

Envisat - Orbit

View from above orbital plane
View from above orbital plane
View from above satellite
View from above satellite

Ground track
Ground track

The orbit data is extracted from the following two-line orbital elements,

1 27386U 02009A   18055.49633758 -.00000008  00000-0  10954-4 0  9993
2 27386  98.1990  94.7840 0001295  89.9105 270.2232 14.37916003837331
Epoch (UTC): 24 February 2018 11:54:43
Eccentricity: 0.0001295
inclination: 98.1990°
perigee height: 764 km
apogee height: 766 km
right ascension of ascending node: 94.7840°
argument of perigee: 89.9105°
revolutions per day: 14.37916003
mean anomaly at epoch: 270.2232°
orbit number at epoch: 83733

The dashed part of the orbit path shows where the satellite is in the earth's shadow,  

DLR